Location: Taupo
(38.6830°S, 176.0830°E)
Time: 23:51:29
(UTC+13:00)

CZ-2C R/B - Pass Details

Date: 24 January 2019
Orbit: 785 x 870 km, 98.3° (Epoch: 17 February)

Event Time Altitude Azimuth Distance (km) Brightness Sun altitude
Exits shadow 21:48:36 15° 31° (NNE) 2,123 4.2 -12.7°
Maximum altitude 21:53:04 59° 107° (ESE) 961 2.8 -13.4°
Drops below altitude 10° 21:58:23 10° 185° (S) 2,438 5.7 -14.2°
Sets 22:00:45 0° 188° (S) 3,365 6.6 -14.5°
